User: anonymous   Login
Location: Caltech
(34.1382°N, 118.1253°W)
Time: 02:13:39
(UTC-07:00)
Language:

Lacrosse 5 - Orbit

View from above orbital plane
View from above orbital plane
View from above satellite
View from above satellite

Ground track
Ground track

The orbit data is extracted from the following two-line orbital elements,

1 28646U 05016A   17084.81716066 0.00000000  00000-0  00000-0 0    06
2 28646  57.0130  77.3759 0005000 109.1804 250.8196 14.51756232    07
Epoch (UTC): 25 March 2017 19:36:42
Eccentricity: 0.0005000
inclination: 57.0130°
perigee height: 716 km
apogee height: 723 km
right ascension of ascending node: 77.3759°
argument of perigee: 109.1804°
revolutions per day: 14.51756232
mean anomaly at epoch: 250.8196°
orbit number at epoch: 0

The dashed part of the orbit path shows where the satellite is in the earth's shadow,  

DLR